Starlink 11186

operational
NORAD ID: 60070 Int'l Des: 2024-113 Owner: SPXS Country: US Constellation: starlink
LEOCIRCULAR

About Starlink 11186

Description loading...

Live Position

Loading 3D Globe...

Upcoming Passes

Altitude History

Altitude vs Time

uPlot chart will show altitude changes over time

Two-Line Element Set

1 60070U 24113M 25258.50837411 .00001341 00000-0 15923-4 0 9998
2 60070 53.1590 335.0368 0001181 79.2851 280.8300 15.69716997 72458
Epoch: Sep 15, 2025 • Age: 13 hours

Current Status

Altitude 377.1 km
Velocity 7.68 km/s
Sub-Earth Point -48.58°S, 105.51°W
Launch Date Jun 19, 2024
Age 1.2 years
Type internet

Technical Details

Classification Payload
Mass 960.00 kg
Dry Mass 910.00 kg
Total Mass 960.00 kg
Length 0.30 m
Diameter 4.10 m
Span 29.00 m
Shape Box + pan
Manufacturer SPXS
Bus Type Starlink V2MD
Phase Status In Orbit
Owner/State SPXS/US

Large Constellations

Loading constellations...